User: anonymous   Login
Location: ?????
(31.8092°N, 35.2590°E)
Time: 12:37:52
(UTC+00:00)
Language:

ERS-1 Rocket - Orbit

View from above orbital plane
View from above orbital plane
View from above satellite
View from above satellite

Ground track
Ground track

The orbit data is extracted from the following two-line orbital elements,

1 21610U 91050F   21262.82995133  .00000029  00000-0  22503-4 0  9995
2 21610  98.4160 332.1458 0002507 340.8445 131.4602 14.40964230583857
Epoch (UTC): 19 September 2021 19:55:07
Eccentricity: 0.0002507
inclination: 98.4160°
perigee height: 753 km
apogee height: 757 km
right ascension of ascending node: 332.1458°
argument of perigee: 340.8445°
revolutions per day: 14.40964230
mean anomaly at epoch: 131.4602°
orbit number at epoch: 58385

The dashed part of the orbit path shows where the satellite is in the earth's shadow,  

DLR